Time,TemperatureF,DewpointF,PressureIn,WindDirection,WindDirectionDegrees,WindSpeedMPH,WindSpeedGustMPH,Humidity,HourlyPrecipIn,Conditions,Clouds,dailyrainin,SolarRadiationWatts/m^2,SoftwareType,DateUTC
2013-04-24 00:01:00,36.0,18.0,-100.00,SW,236,3.0,5.0,47,0.00,,,0.00,0.000000,,2013-04-24 08:01:00,
2013-04-24 00:11:00,36.0,18.0,-100.00,SW,236,3.0,5.0,47,0.00,,,0.00,0.000000,,2013-04-24 08:11:00,
2013-04-24 00:21:00,36.0,18.0,-100.00,SW,236,3.0,5.0,47,0.00,,,0.00,0.000000,,2013-04-24 08:21:00,
2013-04-24 00:52:00,36.0,18.0,-100.00,West,259,2.0,7.0,48,0.00,,,0.00,0.000000,,2013-04-24 08:52:00,
2013-04-24 01:01:00,36.0,18.0,-100.00,West,259,2.0,7.0,48,0.00,,,0.00,0.000000,,2013-04-24 09:01:00,
2013-04-24 01:11:00,36.0,18.0,-100.00,West,259,2.0,7.0,48,0.00,,,0.00,0.000000,,2013-04-24 09:11:00,
2013-04-24 01:21:00,36.0,18.0,-100.00,West,259,2.0,7.0,48,0.00,,,0.00,0.000000,,2013-04-24 09:21:00,
2013-04-24 01:53:00,35.0,20.0,-100.00,WSW,248,4.0,7.0,53,0.00,,,0.00,0.000000,,2013-04-24 09:53:00,
2013-04-24 02:02:00,35.0,20.0,-100.00,WSW,248,4.0,7.0,53,0.00,,,0.00,0.000000,,2013-04-24 10:02:00,
2013-04-24 02:12:00,35.0,20.0,-100.00,WSW,248,4.0,7.0,53,0.00,,,0.00,0.000000,,2013-04-24 10:12:00,
2013-04-24 02:22:00,35.0,20.0,-100.00,WSW,248,4.0,7.0,53,0.00,,,0.00,0.000000,,2013-04-24 10:22:00,
2013-04-24 02:53:00,34.0,20.0,-100.00,West,261,4.0,8.0,55,0.00,,,0.00,0.000000,,2013-04-24 10:53:00,
2013-04-24 03:02:00,34.0,20.0,-100.00,West,261,4.0,8.0,55,0.00,,,0.00,0.000000,,2013-04-24 11:02:00,
2013-04-24 03:11:00,34.0,20.0,-100.00,West,261,4.0,8.0,55,0.00,,,0.00,0.000000,,2013-04-24 11:11:00,
2013-04-24 03:21:00,34.0,20.0,-100.00,West,261,4.0,8.0,55,0.00,,,0.00,0.000000,,2013-04-24 11:21:00,
2013-04-24 03:52:00,37.0,21.0,-100.00,WNW,300,14.0,24.0,52,0.00,,,-99.99,0.000000,,2013-04-24 11:52:00,
2013-04-24 04:02:00,37.0,21.0,-100.00,WNW,300,14.0,24.0,52,0.00,,,-99.99,0.000000,,2013-04-24 12:02:00,
2013-04-24 04:11:00,37.0,21.0,-100.00,WNW,300,14.0,24.0,52,0.00,,,-99.99,0.000000,,2013-04-24 12:11:00,
2013-04-24 04:22:00,37.0,21.0,-100.00,WNW,300,14.0,24.0,52,0.00,,,-99.99,0.000000,,2013-04-24 12:22:00,
2013-04-24 04:52:00,35.0,23.0,-100.00,WNW,297,14.0,29.0,62,0.00,,,0.00,0.000000,,2013-04-24 12:52:00,
2013-04-24 05:01:00,35.0,23.0,-100.00,WNW,297,14.0,29.0,62,0.00,,,0.00,0.000000,,2013-04-24 13:01:00,
2013-04-24 05:12:00,35.0,23.0,-100.00,WNW,297,14.0,29.0,62,0.00,,,0.00,0.000000,,2013-04-24 13:12:00,
2013-04-24 05:21:00,35.0,23.0,-100.00,WNW,297,14.0,29.0,62,0.00,,,0.00,0.000000,,2013-04-24 13:21:00,
2013-04-24 06:52:00,32.0,31.0,-100.00,West,273,10.0,18.0,97,-99.99,,,0.00,4.000000,,2013-04-24 14:52:00,
2013-04-24 07:01:00,32.0,31.0,-100.00,West,273,10.0,18.0,97,-99.99,,,0.00,4.000000,,2013-04-24 15:01:00,
2013-04-24 07:11:00,32.0,31.0,-100.00,West,273,10.0,18.0,97,-99.99,,,0.00,4.000000,,2013-04-24 15:11:00,
2013-04-24 07:21:00,32.0,31.0,-100.00,West,273,10.0,18.0,97,-99.99,,,0.00,4.000000,,2013-04-24 15:21:00,
2013-04-24 07:53:00,31.0,30.0,-100.00,West,260,11.0,15.0,97,0.00,,,0.00,23.000000,,2013-04-24 15:53:00,
2013-04-24 08:03:00,31.0,30.0,-100.00,West,260,11.0,15.0,97,0.00,,,0.00,23.000000,,2013-04-24 16:03:00,
2013-04-24 08:12:00,31.0,30.0,-100.00,West,260,11.0,15.0,97,0.00,,,0.00,23.000000,,2013-04-24 16:12:00,
2013-04-24 08:23:00,31.0,30.0,-100.00,West,260,11.0,15.0,97,0.00,,,0.00,23.000000,,2013-04-24 16:23:00,
2013-04-24 08:52:00,32.0,31.0,-100.00,West,268,10.0,16.0,97,0.00,,,0.00,56.000000,,2013-04-24 16:52:00,
2013-04-24 09:02:00,32.0,31.0,-100.00,West,268,10.0,16.0,97,0.00,,,0.00,56.000000,,2013-04-24 17:02:00,
2013-04-24 09:12:00,32.0,31.0,-100.00,West,268,10.0,16.0,97,0.00,,,0.00,56.000000,,2013-04-24 17:12:00,
2013-04-24 09:22:00,32.0,31.0,-100.00,West,268,10.0,16.0,97,0.00,,,0.00,56.000000,,2013-04-24 17:22:00,
2013-04-24 09:52:00,32.0,32.0,-100.00,West,270,10.0,16.0,98,0.01,,,0.01,99.000000,,2013-04-24 17:52:00,
2013-04-24 10:02:00,32.0,32.0,-100.00,West,270,10.0,16.0,98,0.01,,,0.01,99.000000,,2013-04-24 18:02:00,
2013-04-24 10:12:00,32.0,32.0,-100.00,West,270,10.0,16.0,98,0.01,,,0.01,99.000000,,2013-04-24 18:12:00,
2013-04-24 10:21:00,32.0,32.0,-100.00,West,270,10.0,16.0,98,0.01,,,0.01,99.000000,,2013-04-24 18:21:00,
2013-04-24 10:52:00,33.0,32.0,-100.00,WNW,284,9.0,14.0,96,0.02,,,0.03,164.000000,,2013-04-24 18:52:00,
2013-04-24 11:01:00,33.0,32.0,-100.00,WNW,284,9.0,14.0,96,0.02,,,0.03,164.000000,,2013-04-24 19:01:00,
2013-04-24 11:11:00,33.0,32.0,-100.00,WNW,284,9.0,14.0,96,0.02,,,0.03,164.000000,,2013-04-24 19:11:00,
2013-04-24 11:21:00,33.0,32.0,-100.00,WNW,284,9.0,14.0,96,0.02,,,0.03,164.000000,,2013-04-24 19:21:00,
2013-04-24 11:52:00,33.0,31.0,-100.00,WNW,285,12.0,17.0,92,0.00,,,0.03,218.000000,,2013-04-24 19:52:00,
2013-04-24 12:01:00,33.0,31.0,-100.00,WNW,285,12.0,17.0,92,0.00,,,0.03,218.000000,,2013-04-24 20:01:00,
2013-04-24 12:11:00,33.0,31.0,-100.00,WNW,285,12.0,17.0,92,0.00,,,0.03,218.000000,,2013-04-24 20:11:00,
2013-04-24 12:21:00,33.0,31.0,-100.00,WNW,285,12.0,17.0,92,0.00,,,0.03,218.000000,,2013-04-24 20:21:00,
2013-04-24 12:52:00,33.0,30.0,-100.00,West,274,10.0,17.0,90,0.00,,,0.03,216.000000,,2013-04-24 20:52:00,
2013-04-24 13:02:00,33.0,30.0,-100.00,West,274,10.0,17.0,90,0.00,,,0.03,216.000000,,2013-04-24 21:02:00,
2013-04-24 13:11:00,33.0,30.0,-100.00,West,274,10.0,17.0,90,0.00,,,0.03,216.000000,,2013-04-24 21:11:00,
2013-04-24 13:21:00,33.0,30.0,-100.00,West,274,10.0,17.0,90,0.00,,,0.03,216.000000,,2013-04-24 21:21:00,
2013-04-24 13:52:00,33.0,29.0,-100.00,West,268,10.0,15.0,85,0.00,,,0.03,154.000000,,2013-04-24 21:52:00,
2013-04-24 14:03:00,33.0,29.0,-100.00,West,268,10.0,15.0,85,0.00,,,0.03,154.000000,,2013-04-24 22:03:00,
2013-04-24 14:12:00,33.0,29.0,-100.00,West,268,10.0,15.0,85,0.00,,,0.03,154.000000,,2013-04-24 22:12:00,
2013-04-24 14:22:00,33.0,29.0,-100.00,West,268,10.0,15.0,85,0.00,,,0.03,154.000000,,2013-04-24 22:22:00,
2013-04-24 14:52:00,35.0,26.0,-100.00,WNW,287,12.0,18.0,68,0.00,,,0.03,318.000000,,2013-04-24 22:52:00,
2013-04-24 15:02:00,35.0,26.0,-100.00,WNW,287,12.0,18.0,68,0.00,,,0.03,318.000000,,2013-04-24 23:02:00,
2013-04-24 15:12:00,35.0,26.0,-100.00,WNW,287,12.0,18.0,68,0.00,,,0.03,318.000000,,2013-04-24 23:12:00,
2013-04-24 15:21:00,35.0,26.0,-100.00,WNW,287,12.0,18.0,68,0.00,,,0.03,318.000000,,2013-04-24 23:21:00,
2013-04-24 15:52:00,36.0,25.0,-100.00,WNW,289,12.0,18.0,63,0.00,,,0.03,383.000000,,2013-04-24 23:52:00,
2013-04-24 16:01:00,36.0,25.0,-100.00,WNW,289,12.0,18.0,63,0.00,,,0.03,383.000000,,2013-04-25 00:01:00,
2013-04-24 16:12:00,36.0,25.0,-100.00,WNW,289,12.0,18.0,63,0.00,,,0.03,383.000000,,2013-04-25 00:12:00,
2013-04-24 16:22:00,36.0,25.0,-100.00,WNW,289,12.0,18.0,63,0.00,,,0.03,383.000000,,2013-04-25 00:22:00,
2013-04-24 16:52:00,36.0,25.0,-100.00,WNW,282,10.0,18.0,65,0.00,,,0.03,291.000000,,2013-04-25 00:52:00,
2013-04-24 17:01:00,36.0,25.0,-100.00,WNW,282,10.0,18.0,65,0.00,,,0.03,291.000000,,2013-04-25 01:01:00,
2013-04-24 17:11:00,36.0,25.0,-100.00,WNW,282,10.0,18.0,65,0.00,,,0.03,291.000000,,2013-04-25 01:11:00,
2013-04-24 17:22:00,36.0,25.0,-100.00,WNW,282,10.0,18.0,65,0.00,,,0.03,291.000000,,2013-04-25 01:22:00,
2013-04-24 17:52:00,36.0,25.0,-100.00,WNW,286,12.0,15.0,64,0.00,,,0.03,304.000000,,2013-04-25 01:52:00,
2013-04-24 18:01:00,36.0,25.0,-100.00,WNW,286,12.0,15.0,64,0.00,,,0.03,304.000000,,2013-04-25 02:01:00,
2013-04-24 18:11:00,36.0,25.0,-100.00,WNW,286,12.0,15.0,64,0.00,,,0.03,304.000000,,2013-04-25 02:11:00,
2013-04-24 18:22:00,36.0,25.0,-100.00,WNW,286,12.0,15.0,64,0.00,,,0.03,304.000000,,2013-04-25 02:22:00,
2013-04-24 19:02:00,36.0,25.0,-100.00,WNW,296,9.0,16.0,63,0.00,,,0.03,230.000000,,2013-04-25 03:02:00,
2013-04-24 19:11:00,36.0,25.0,-100.00,WNW,296,9.0,16.0,63,0.00,,,0.03,230.000000,,2013-04-25 03:11:00,
2013-04-24 19:21:00,36.0,25.0,-100.00,WNW,296,9.0,16.0,63,0.00,,,0.03,230.000000,,2013-04-25 03:21:00,
2013-04-24 19:52:00,36.0,26.0,-100.00,WNW,285,9.0,14.0,66,0.00,,,0.03,184.000000,,2013-04-25 03:52:00,
2013-04-24 20:03:00,36.0,26.0,-100.00,WNW,285,9.0,14.0,66,0.00,,,0.03,184.000000,,2013-04-25 04:03:00,
2013-04-24 20:12:00,36.0,26.0,-100.00,WNW,285,9.0,14.0,66,0.00,,,0.03,184.000000,,2013-04-25 04:12:00,
2013-04-24 20:22:00,36.0,26.0,-100.00,WNW,285,9.0,14.0,66,0.00,,,0.03,184.000000,,2013-04-25 04:22:00,
2013-04-24 20:52:00,35.0,24.0,-100.00,WNW,288,8.0,13.0,65,0.00,,,0.03,136.000000,,2013-04-25 04:52:00,
2013-04-24 21:02:00,35.0,24.0,-100.00,WNW,288,8.0,13.0,65,0.00,,,0.03,136.000000,,2013-04-25 05:02:00,
2013-04-24 21:12:00,35.0,24.0,-100.00,WNW,288,8.0,13.0,65,0.00,,,0.03,136.000000,,2013-04-25 05:12:00,
2013-04-24 21:21:00,35.0,24.0,-100.00,WNW,288,8.0,13.0,65,0.00,,,0.03,136.000000,,2013-04-25 05:21:00,
2013-04-24 21:52:00,33.0,24.0,-100.00,West,276,4.0,10.0,69,0.00,,,0.03,62.000000,,2013-04-25 05:52:00,
2013-04-24 22:01:00,33.0,24.0,-100.00,West,276,4.0,10.0,69,0.00,,,0.03,62.000000,,2013-04-25 06:01:00,
2013-04-24 22:11:00,33.0,24.0,-100.00,West,276,4.0,10.0,69,0.00,,,0.03,62.000000,,2013-04-25 06:11:00,
2013-04-24 22:22:00,33.0,24.0,-100.00,West,276,4.0,10.0,69,0.00,,,0.03,62.000000,,2013-04-25 06:22:00,
2013-04-24 22:52:00,31.0,27.0,-100.00,WNW,295,5.0,10.0,84,0.00,,,0.03,6.000000,,2013-04-25 06:52:00,
2013-04-24 23:01:00,31.0,27.0,-100.00,WNW,295,5.0,10.0,84,0.00,,,0.03,6.000000,,2013-04-25 07:01:00,
2013-04-24 23:11:00,31.0,27.0,-100.00,WNW,295,5.0,10.0,84,0.00,,,0.03,6.000000,,2013-04-25 07:11:00,
2013-04-24 23:21:00,31.0,27.0,-100.00,WNW,295,5.0,10.0,84,0.00,,,0.03,6.000000,,2013-04-25 07:21:00,
2013-04-24 23:52:00,29.0,23.0,-100.00,WNW,300,5.0,10.0,78,0.00,,,0.03,0.000000,,2013-04-25 07:52:00,